Wetterdaten: Freitag, 03.10.2014
Datum Zeit Temp. A. Feuchte A. Luftdruck Regen Wind Richtung Richtung Sonnenschein ET UV Solar Taupunkt Windchill Windben Empfang
03.10.2014 00:00 11,4 C 82 % 1026,7 hPa 0,0 l/m 0,0 km/h (0 Bft) S 169 0 min 0,000 mm 0,0 UV-I 0 W/m 8,4 C 11,4 C 0,0 km/h (0 Bft) 0,00 %
03.10.2014 00:15 11,3 C 82 % 1026,6 hPa 0,0 l/m 0,0 km/h (0 Bft) O 101 0 min 0,000 mm 0,0 UV-I 0 W/m 8,3 C 11,3 C 0,0 km/h (0 Bft) 0,00 %
03.10.2014 00:30 11,0 C 83 % 1026,8 hPa 0,0 l/m 0,0 km/h (0 Bft) SO 140 0 min 0,000 mm 0,0 UV-I 0 W/m 8,2 C 11,0 C 0,0 km/h (0 Bft) 0,00 %
03.10.2014 00:45 10,7 C 84 % 1026,8 hPa 0,0 l/m 0,0 km/h (0 Bft) SO 140 0 min 0,000 mm 0,0 UV-I 0 W/m 8,1 C 10,7 C 0,0 km/h (0 Bft) 0,00 %
03.10.2014 01:00 10,4 C 85 % 1026,7 hPa 0,0 l/m 0,0 km/h (0 Bft) S-SO 167 0 min 0,000 mm 0,0 UV-I 0 W/m 8,0 C 10,4 C 0,0 km/h (0 Bft) 0,00 %
03.10.2014 01:15 10,2 C 86 % 1026,8 hPa 0,0 l/m 0,0 km/h (0 Bft) N 354 0 min 0,000 mm 0,0 UV-I 0 W/m 8,0 C 10,2 C 0,0 km/h (0 Bft) 0,00 %
03.10.2014 01:30 10,2 C 86 % 1027,0 hPa 0,0 l/m 0,0 km/h (0 Bft) SO 146 0 min 0,000 mm 0,0 UV-I 0 W/m 8,0 C 10,2 C 0,0 km/h (0 Bft) 0,00 %
03.10.2014 01:45 10,1 C 86 % 1027,0 hPa 0,0 l/m 0,0 km/h (0 Bft) SO 136 0 min 0,000 mm 0,0 UV-I 0 W/m 7,9 C 10,1 C 0,0 km/h (0 Bft) 0,00 %
03.10.2014 02:00 10,0 C 86 % 1027,0 hPa 0,0 l/m 0,0 km/h (0 Bft) SO 136 0 min 0,000 mm 0,0 UV-I 0 W/m 7,8 C 10,0 C 0,0 km/h (0 Bft) 0,00 %
03.10.2014 02:15 9,8 C 86 % 1026,6 hPa 0,0 l/m 0,0 km/h (0 Bft) SO 136 0 min 0,000 mm 0,0 UV-I 0 W/m 7,6 C 9,8 C 0,0 km/h (0 Bft) 0,00 %
03.10.2014 02:30 9,5 C 87 % 1026,7 hPa 0,0 l/m 0,0 km/h (0 Bft) SO 136 0 min 0,000 mm 0,0 UV-I 0 W/m 7,4 C 9,5 C 0,0 km/h (0 Bft) 0,00 %
03.10.2014 02:45 9,2 C 87 % 1026,7 hPa 0,0 l/m 0,0 km/h (0 Bft) SO 137 0 min 0,000 mm 0,0 UV-I 0 W/m 7,2 C 9,2 C 0,0 km/h (0 Bft) 0,00 %
03.10.2014 03:00 9,1 C 88 % 1026,5 hPa 0,0 l/m 0,0 km/h (0 Bft) S 171 0 min 0,000 mm 0,0 UV-I 0 W/m 7,2 C 9,1 C 0,0 km/h (0 Bft) 0,00 %
03.10.2014 03:15 9,1 C 88 % 1026,6 hPa 0,0 l/m 0,0 km/h (0 Bft) S-SO 168 0 min 0,000 mm 0,0 UV-I 0 W/m 7,2 C 9,1 C 0,0 km/h (0 Bft) 0,00 %
03.10.2014 03:30 9,2 C 88 % 1026,4 hPa 0,0 l/m 0,0 km/h (0 Bft) S 174 0 min 0,000 mm 0,0 UV-I 0 W/m 7,3 C 9,2 C 0,0 km/h (0 Bft) 0,00 %
03.10.2014 03:45 9,1 C 88 % 1026,2 hPa 0,0 l/m 0,0 km/h (0 Bft) S 174 0 min 0,000 mm 0,0 UV-I 0 W/m 7,2 C 9,1 C 0,0 km/h (0 Bft) 0,00 %
03.10.2014 04:00 8,9 C 88 % 1026,2 hPa 0,0 l/m 0,0 km/h (0 Bft) S 173 0 min 0,000 mm 0,0 UV-I 0 W/m 7,0 C 8,9 C 0,0 km/h (0 Bft) 0,00 %
03.10.2014 04:15 8,8 C 88 % 1026,3 hPa 0,0 l/m 0,0 km/h (0 Bft) SO 137 0 min 0,000 mm 0,0 UV-I 0 W/m 6,9 C 8,8 C 0,0 km/h (0 Bft) 0,00 %
03.10.2014 04:30 8,7 C 88 % 1026,2 hPa 0,0 l/m 0,0 km/h (0 Bft) S 173 0 min 0,000 mm 0,0 UV-I 0 W/m 6,8 C 8,7 C 0,0 km/h (0 Bft) 0,00 %
03.10.2014 04:45 8,6 C 88 % 1026,3 hPa 0,0 l/m 0,0 km/h (0 Bft) SO 139 0 min 0,000 mm 0,0 UV-I 0 W/m 6,7 C 8,6 C 0,0 km/h (0 Bft) 0,00 %
03.10.2014 05:00 9,2 C 89 % 1026,0 hPa 0,0 l/m 0,0 km/h (0 Bft) S 182 0 min 0,000 mm 0,0 UV-I 0 W/m 7,5 C 9,2 C 0,0 km/h (0 Bft) 0,00 %
03.10.2014 05:15 9,3 C 89 % 1026,1 hPa 0,0 l/m 0,0 km/h (0 Bft) S 177 0 min 0,000 mm 0,0 UV-I 0 W/m 7,6 C 9,3 C 0,0 km/h (0 Bft) 0,00 %
03.10.2014 05:30 9,4 C 88 % 1026,1 hPa 0,0 l/m 0,0 km/h (0 Bft) S 177 0 min 0,000 mm 0,0 UV-I 0 W/m 7,5 C 9,4 C 0,0 km/h (0 Bft) 0,00 %
03.10.2014 05:45 9,4 C 88 % 1026,2 hPa 0,0 l/m 0,0 km/h (0 Bft) S 177 0 min 0,000 mm 0,0 UV-I 0 W/m 7,5 C 9,4 C 0,0 km/h (0 Bft) 0,00 %
03.10.2014 06:00 9,4 C 88 % 1026,1 hPa 0,0 l/m 0,0 km/h (0 Bft) S 177 0 min 0,000 mm 0,0 UV-I 0 W/m 7,5 C 9,4 C 0,0 km/h (0 Bft) 0,00 %
03.10.2014 06:15 9,5 C 88 % 1026,3 hPa 0,0 l/m 0,0 km/h (0 Bft) S 177 0 min 0,000 mm 0,0 UV-I 0 W/m 7,6 C 9,5 C 0,0 km/h (0 Bft) 0,00 %
03.10.2014 06:30 9,5 C 88 % 1026,0 hPa 0,0 l/m 0,0 km/h (0 Bft) S 177 0 min 0,000 mm 0,0 UV-I 0 W/m 7,6 C 9,5 C 0,0 km/h (0 Bft) 0,00 %
03.10.2014 06:45 9,5 C 88 % 1026,1 hPa 0,0 l/m 0,0 km/h (0 Bft) S 177 0 min 0,000 mm 0,0 UV-I 0 W/m 7,6 C 9,5 C 0,0 km/h (0 Bft) 0,00 %
03.10.2014 07:00 9,5 C 89 % 1026,1 hPa 0,0 l/m 0,0 km/h (0 Bft) S 177 0 min 0,000 mm 0,0 UV-I 0 W/m 7,8 C 9,5 C 0,0 km/h (0 Bft) 0,00 %
03.10.2014 07:15 9,5 C 89 % 1026,3 hPa 0,0 l/m 0,0 km/h (0 Bft) S 187 0 min 0,000 mm 0,0 UV-I 0 W/m 7,8 C 9,5 C 0,0 km/h (0 Bft) 0,00 %
03.10.2014 07:30 9,6 C 89 % 1026,1 hPa 0,0 l/m 0,0 km/h (0 Bft) S-SO 148 0 min 0,000 mm 0,0 UV-I 9 W/m 7,9 C 9,6 C 0,0 km/h (0 Bft) 0,00 %
03.10.2014 07:45 9,7 C 89 % 1026,1 hPa 0,0 l/m 0,0 km/h (0 Bft) S 177 0 min 0,000 mm 0,0 UV-I 26 W/m 8,0 C 9,7 C 0,0 km/h (0 Bft) 0,00 %
03.10.2014 08:00 9,8 C 89 % 1026,2 hPa 0,0 l/m 0,0 km/h (0 Bft) S 179 0 min 0,000 mm 1,0 UV-I 44 W/m 8,1 C 9,8 C 0,0 km/h (0 Bft) 0,00 %
03.10.2014 08:15 10,0 C 89 % 1026,2 hPa 0,0 l/m 0,0 km/h (0 Bft) S 179 0 min 0,000 mm 1,0 UV-I 62 W/m 8,3 C 10,0 C 0,0 km/h (0 Bft) 0,00 %
03.10.2014 08:30 10,4 C 88 % 1026,2 hPa 0,0 l/m 0,0 km/h (0 Bft) S 179 0 min 0,000 mm 1,0 UV-I 84 W/m 8,5 C 10,4 C 0,0 km/h (0 Bft) 0,00 %
03.10.2014 08:45 10,9 C 89 % 1025,9 hPa 0,0 l/m 0,0 km/h (0 Bft) O-SO 115 0 min 0,000 mm 1,0 UV-I 100 W/m 9,2 C 10,9 C 0,0 km/h (0 Bft) 0,00 %
03.10.2014 09:00 11,3 C 89 % 1026,0 hPa 0,0 l/m 0,0 km/h (0 Bft) S-SW 197 0 min 0,000 mm 1,0 UV-I 116 W/m 9,6 C 11,3 C 0,0 km/h (0 Bft) 0,00 %
03.10.2014 09:15 11,6 C 88 % 1025,9 hPa 0,0 l/m 0,0 km/h (0 Bft) O-SO 122 0 min 0,000 mm 1,0 UV-I 125 W/m 9,7 C 11,6 C 0,0 km/h (0 Bft) 0,00 %
03.10.2014 09:30 11,7 C 86 % 1025,8 hPa 0,0 l/m 0,0 km/h (0 Bft) O 81 0 min 0,000 mm 2,0 UV-I 141 W/m 9,4 C 11,7 C 0,0 km/h (0 Bft) 0,00 %
03.10.2014 09:45 12,5 C 83 % 1025,5 hPa 0,0 l/m 0,0 km/h (0 Bft) S 188 0 min 0,000 mm 2,0 UV-I 175 W/m 9,7 C 12,5 C 0,0 km/h (0 Bft) 0,00 %
03.10.2014 10:00 13,0 C 80 % 1025,2 hPa 0,0 l/m 0,0 km/h (0 Bft) O-SO 115 0 min 0,000 mm 2,0 UV-I 192 W/m 9,6 C 13,0 C 0,0 km/h (0 Bft) 0,00 %
03.10.2014 10:15 13,1 C 77 % 1025,2 hPa 0,0 l/m 0,4 km/h (0 Bft) SO 133 0 min 0,000 mm 2,0 UV-I 218 W/m 9,2 C 13,1 C 4,0 km/h (1 Bft) 0,00 %
03.10.2014 10:30 13,6 C 78 % 1025,1 hPa 0,0 l/m 2,9 km/h (1 Bft) N-NO 20 0 min 0,000 mm 3,0 UV-I 248 W/m 9,8 C 13,6 C 4,0 km/h (1 Bft) 0,00 %
03.10.2014 10:45 14,2 C 75 % 1024,8 hPa 0,0 l/m 2,2 km/h (1 Bft) NO 36 15 min 0,000 mm 3,0 UV-I 323 W/m 9,8 C 14,2 C 4,0 km/h (1 Bft) 0,00 %
03.10.2014 11:00 14,4 C 73 % 1024,3 hPa 0,0 l/m 0,4 km/h (0 Bft) SO 140 0 min 0,000 mm 3,0 UV-I 267 W/m 9,6 C 14,4 C 4,0 km/h (1 Bft) 0,00 %
03.10.2014 11:15 15,2 C 70 % 1023,9 hPa 0,0 l/m 5,4 km/h (1 Bft) O 85 0 min 0,000 mm 3,0 UV-I 240 W/m 9,8 C 15,2 C 7,9 km/h (2 Bft) 0,00 %
03.10.2014 11:30 15,3 C 72 % 1024,1 hPa 0,0 l/m 5,4 km/h (1 Bft) O-NO 74 0 min 0,000 mm 2,0 UV-I 277 W/m 10,3 C 15,3 C 7,9 km/h (2 Bft) 0,00 %
03.10.2014 11:45 15,6 C 69 % 1023,6 hPa 0,0 l/m 0,4 km/h (0 Bft) N-NW 346 15 min 0,000 mm 4,0 UV-I 440 W/m 9,9 C 15,6 C 4,0 km/h (1 Bft) 0,00 %
03.10.2014 12:00 15,7 C 69 % 1023,1 hPa 0,0 l/m 9,0 km/h (2 Bft) O-NO 75 15 min 0,000 mm 4,0 UV-I 347 W/m 10,0 C 14,3 C 11,9 km/h (2 Bft) 0,00 %
03.10.2014 12:15 15,9 C 69 % 1023,3 hPa 0,0 l/m 9,4 km/h (2 Bft) O 95 15 min 0,000 mm 3,0 UV-I 522 W/m 10,2 C 14,4 C 11,9 km/h (2 Bft) 0,00 %
03.10.2014 12:30 15,8 C 69 % 1023,0 hPa 0,0 l/m 6,8 km/h (2 Bft) S-SO 154 15 min 0,000 mm 3,0 UV-I 443 W/m 10,1 C 15,6 C 11,9 km/h (2 Bft) 0,00 %
03.10.2014 12:45 16,1 C 67 % 1022,9 hPa 0,0 l/m 9,0 km/h (2 Bft) O-SO 104 15 min 0,000 mm 3,0 UV-I 428 W/m 10,0 C 14,8 C 11,9 km/h (2 Bft) 0,00 %
03.10.2014 13:00 16,7 C 65 % 1022,9 hPa 0,0 l/m 10,4 km/h (2 Bft) O-SO 109 0 min 0,000 mm 3,0 UV-I 272 W/m 10,1 C 14,8 C 15,8 km/h (3 Bft) 0,00 %
03.10.2014 13:15 16,7 C 65 % 1022,4 hPa 0,0 l/m 9,4 km/h (2 Bft) W 281 0 min 0,000 mm 3,0 UV-I 283 W/m 10,1 C 15,2 C 15,8 km/h (3 Bft) 0,00 %
03.10.2014 13:30 16,7 C 64 % 1022,3 hPa 0,0 l/m 0,4 km/h (0 Bft) S 175 0 min 0,000 mm 3,0 UV-I 201 W/m 9,9 C 16,7 C 4,0 km/h (1 Bft) 0,00 %
03.10.2014 13:45 16,9 C 62 % 1022,0 hPa 0,0 l/m 6,5 km/h (2 Bft) S-SO 154 0 min 0,000 mm 3,0 UV-I 218 W/m 9,6 C 16,9 C 7,9 km/h (2 Bft) 0,00 %
03.10.2014 14:00 16,7 C 64 % 1022,0 hPa 0,0 l/m 1,4 km/h (1 Bft) N-NW 347 0 min 0,000 mm 3,0 UV-I 201 W/m 9,9 C 16,7 C 4,0 km/h (1 Bft) 0,00 %
03.10.2014 14:15 16,3 C 65 % 1022,1 hPa 0,0 l/m 0,4 km/h (0 Bft) NO 43 0 min 0,000 mm 2,0 UV-I 190 W/m 9,7 C 16,3 C 4,0 km/h (1 Bft) 0,00 %
03.10.2014 14:30 16,1 C 66 % 1021,9 hPa 0,0 l/m 6,5 km/h (2 Bft) O 101 0 min 0,000 mm 2,0 UV-I 192 W/m 9,7 C 16,1 C 7,9 km/h (2 Bft) 0,00 %
03.10.2014 14:45 16,1 C 63 % 1022,0 hPa 0,0 l/m 7,2 km/h (2 Bft) SO 136 0 min 0,000 mm 2,0 UV-I 178 W/m 9,1 C 15,7 C 7,9 km/h (2 Bft) 0,00 %
03.10.2014 15:00 16,3 C 63 % 1021,6 hPa 0,0 l/m 4,0 km/h (1 Bft) NO 36 0 min 0,000 mm 2,0 UV-I 158 W/m 9,2 C 16,3 C 4,0 km/h (1 Bft) 0,00 %
03.10.2014 15:15 16,6 C 62 % 1021,8 hPa 0,0 l/m 2,9 km/h (1 Bft) N 352 0 min 0,000 mm 2,0 UV-I 171 W/m 9,3 C 16,6 C 4,0 km/h (1 Bft) 0,00 %
03.10.2014 15:30 16,6 C 61 % 1021,4 hPa 0,0 l/m 5,4 km/h (1 Bft) O 100 0 min 0,000 mm 2,0 UV-I 180 W/m 9,0 C 16,6 C 7,9 km/h (2 Bft) 0,00 %
03.10.2014 15:45 17,0 C 60 % 1021,2 hPa 0,0 l/m 5,8 km/h (2 Bft) SO 139 0 min 0,000 mm 2,0 UV-I 229 W/m 9,2 C 17,0 C 7,9 km/h (2 Bft) 0,00 %
03.10.2014 16:00 17,4 C 60 % 1021,1 hPa 0,0 l/m 2,9 km/h (1 Bft) O 92 15 min 0,000 mm 2,0 UV-I 279 W/m 9,6 C 17,4 C 7,9 km/h (2 Bft) 0,00 %
03.10.2014 16:15 17,1 C 60 % 1021,1 hPa 0,0 l/m 7,2 km/h (2 Bft) SO 141 15 min 0,000 mm 2,0 UV-I 260 W/m 9,3 C 16,7 C 11,9 km/h (2 Bft) 0,00 %
03.10.2014 16:30 16,8 C 62 % 1021,5 hPa 0,0 l/m 4,3 km/h (1 Bft) O 94 15 min 0,000 mm 1,0 UV-I 203 W/m 9,5 C 16,8 C 7,9 km/h (2 Bft) 0,00 %
03.10.2014 16:45 16,5 C 63 % 1021,8 hPa 0,0 l/m 6,8 km/h (2 Bft) O 79 0 min 0,000 mm 1,0 UV-I 156 W/m 9,4 C 16,3 C 7,9 km/h (2 Bft) 0,00 %
03.10.2014 17:00 16,5 C 64 % 1021,6 hPa 0,0 l/m 7,2 km/h (2 Bft) O-SO 112 0 min 0,000 mm 1,0 UV-I 144 W/m 9,7 C 16,1 C 11,9 km/h (2 Bft) 0,00 %
03.10.2014 17:15 16,1 C 64 % 1021,8 hPa 0,0 l/m 5,4 km/h (1 Bft) O-SO 120 0 min 0,000 mm 1,0 UV-I 111 W/m 9,3 C 16,1 C 7,9 km/h (2 Bft) 0,00 %
03.10.2014 17:30 16,0 C 66 % 1021,9 hPa 0,0 l/m 0,0 km/h (0 Bft) S 172 0 min 0,000 mm 1,0 UV-I 69 W/m 9,7 C 16,0 C 0,0 km/h (0 Bft) 0,00 %
03.10.2014 17:45 15,6 C 65 % 1022,0 hPa 0,0 l/m 3,2 km/h (1 Bft) O-SO 110 0 min 0,000 mm 0,0 UV-I 48 W/m 9,0 C 15,6 C 4,0 km/h (1 Bft) 0,00 %
03.10.2014 18:00 15,4 C 67 % 1022,1 hPa 0,0 l/m 0,4 km/h (0 Bft) S 173 0 min 0,000 mm 0,0 UV-I 34 W/m 9,3 C 15,4 C 4,0 km/h (1 Bft) 0,00 %
03.10.2014 18:15 15,1 C 68 % 1022,1 hPa 0,0 l/m 1,4 km/h (1 Bft) O-SO 112 0 min 0,000 mm 0,0 UV-I 21 W/m 9,2 C 15,1 C 4,0 km/h (1 Bft) 0,00 %
03.10.2014 18:30 14,7 C 70 % 1022,1 hPa 0,0 l/m 0,0 km/h (0 Bft) O 100 0 min 0,000 mm 0,0 UV-I 1 W/m 9,3 C 14,7 C 0,0 km/h (0 Bft) 0,00 %
03.10.2014 18:45 14,4 C 71 % 1022,1 hPa 0,0 l/m 1,4 km/h (1 Bft) O-SO 119 0 min 0,000 mm 0,0 UV-I 0 W/m 9,2 C 14,4 C 4,0 km/h (1 Bft) 0,00 %
03.10.2014 19:00 14,2 C 72 % 1022,3 hPa 0,0 l/m 0,4 km/h (0 Bft) O-SO 111 0 min 0,000 mm 0,0 UV-I 0 W/m 9,2 C 14,2 C 4,0 km/h (1 Bft) 0,00 %
03.10.2014 19:15 14,0 C 72 % 1022,4 hPa 0,0 l/m 0,4 km/h (0 Bft) O-SO 118 0 min 0,000 mm 0,0 UV-I 0 W/m 9,0 C 14,0 C 4,0 km/h (1 Bft) 0,00 %
03.10.2014 19:30 13,9 C 73 % 1022,4 hPa 0,0 l/m 0,0 km/h (0 Bft) O 96 0 min 0,000 mm 0,0 UV-I 0 W/m 9,1 C 13,9 C 0,0 km/h (0 Bft) 0,00 %
03.10.2014 19:45 13,8 C 74 % 1022,3 hPa 0,0 l/m 0,0 km/h (0 Bft) S 177 0 min 0,000 mm 0,0 UV-I 0 W/m 9,2 C 13,8 C 0,0 km/h (0 Bft) 0,00 %
03.10.2014 20:00 13,5 C 75 % 1022,4 hPa 0,0 l/m 0,0 km/h (0 Bft) S-SO 153 0 min 0,000 mm 0,0 UV-I 0 W/m 9,2 C 13,5 C 0,0 km/h (0 Bft) 0,00 %
03.10.2014 20:15 13,3 C 75 % 1022,3 hPa 0,0 l/m 0,4 km/h (0 Bft) SO 138 0 min 0,000 mm 0,0 UV-I 0 W/m 9,0 C 13,3 C 4,0 km/h (1 Bft) 0,00 %
03.10.2014 20:30 13,2 C 75 % 1022,1 hPa 0,0 l/m 0,0 km/h (0 Bft) S-SO 149 0 min 0,000 mm 0,0 UV-I 0 W/m 8,9 C 13,2 C 0,0 km/h (0 Bft) 0,00 %
03.10.2014 20:45 12,8 C 77 % 1022,3 hPa 0,0 l/m 0,0 km/h (0 Bft) SO 125 0 min 0,000 mm 0,0 UV-I 0 W/m 8,9 C 12,8 C 0,0 km/h (0 Bft) 0,00 %
03.10.2014 21:00 12,4 C 79 % 1022,1 hPa 0,0 l/m 0,0 km/h (0 Bft) S-SO 149 0 min 0,000 mm 0,0 UV-I 0 W/m 8,9 C 12,4 C 0,0 km/h (0 Bft) 0,00 %
03.10.2014 21:15 11,7 C 82 % 1022,2 hPa 0,0 l/m 0,0 km/h (0 Bft) S-SO 157 0 min 0,000 mm 0,0 UV-I 0 W/m 8,7 C 11,7 C 0,0 km/h (0 Bft) 0,00 %
03.10.2014 21:30 11,3 C 82 % 1022,5 hPa 0,0 l/m 0,0 km/h (0 Bft) S-SO 167 0 min 0,000 mm 0,0 UV-I 0 W/m 8,3 C 11,3 C 0,0 km/h (0 Bft) 0,00 %
03.10.2014 21:45 11,0 C 83 % 1022,4 hPa 0,0 l/m 0,0 km/h (0 Bft) S-SO 150 0 min 0,000 mm 0,0 UV-I 0 W/m 8,2 C 11,0 C 0,0 km/h (0 Bft) 0,00 %
03.10.2014 22:00 10,9 C 84 % 1022,5 hPa 0,0 l/m 0,0 km/h (0 Bft) NO 41 0 min 0,000 mm 0,0 UV-I 0 W/m 8,3 C 10,9 C 0,0 km/h (0 Bft) 0,00 %
03.10.2014 22:15 10,8 C 84 % 1022,4 hPa 0,0 l/m 0,0 km/h (0 Bft) SW 234 0 min 0,000 mm 0,0 UV-I 0 W/m 8,2 C 10,8 C 0,0 km/h (0 Bft) 0,00 %
03.10.2014 22:30 10,8 C 84 % 1022,3 hPa 0,0 l/m 0,0 km/h (0 Bft) S-SW 213 0 min 0,000 mm 0,0 UV-I 0 W/m 8,2 C 10,8 C 0,0 km/h (0 Bft) 0,00 %
03.10.2014 22:45 10,7 C 84 % 1022,3 hPa 0,0 l/m 0,0 km/h (0 Bft) S-SW 213 0 min 0,000 mm 0,0 UV-I 0 W/m 8,1 C 10,7 C 0,0 km/h (0 Bft) 0,00 %
03.10.2014 23:00 10,5 C 84 % 1021,9 hPa 0,0 l/m 0,0 km/h (0 Bft) S 185 0 min 0,000 mm 0,0 UV-I 0 W/m 7,9 C 10,5 C 0,0 km/h (0 Bft) 0,00 %
03.10.2014 23:15 10,4 C 86 % 1022,0 hPa 0,0 l/m 0,0 km/h (0 Bft) O 90 0 min 0,000 mm 0,0 UV-I 0 W/m 8,2 C 10,4 C 0,0 km/h (0 Bft) 0,00 %
03.10.2014 23:30 10,3 C 86 % 1021,8 hPa 0,0 l/m 0,0 km/h (0 Bft) SO 128 0 min 0,000 mm 0,0 UV-I 0 W/m 8,1 C 10,3 C 0,0 km/h (0 Bft) 0,00 %
03.10.2014 23:45 10,2 C 87 % 1022,0 hPa 0,0 l/m 0,0 km/h (0 Bft) S 172 0 min 0,000 mm 0,0 UV-I 0 W/m 8,1 C 10,2 C 0,0 km/h (0 Bft) 0,00 %
_ Min-Zeit 04:45 15:45 16:00 - 00:00 - - - - - - 04:45 04:45 00:00 00:00
Minimum _ 8,6 C 60 % 1021,1 hPa - 0,0 km/h (0 Bft) - - - - - - 6,7 C 8,6 C 0,0 km/h (0 Bft) 0,00 %
_ Max-Zeit 16:00 05:00 01:30 00:00 13:00 - - 10:45 00:00 11:45 12:15 11:30 16:00 13:00 00:00
Maximum _ 17,4 C 89 % 1027,0 hPa 0,0 l/m 10,4 km/h
O-SO (2 Bft)
- - 15 min 0,000 mm 4,0 UV-I 522 W/m 10,3 C 17,4 C 15,8 km/h
O-SO (3 Bft)
0,00 %
Durchschnitt _ 12,6 C 78 % 1024,1 hPa #0,0 l/m 1,6 km/h (1 Bft) O - #2:15 h #0,000 mm 2,1 UV-I 192 W/m 8,7 C 12,5 C 2,7 km/h (1 Bft) 0,00 %